Wind_Speed
45 48 47 50 54 56 55 53 54 54 54 54 53 54 59 65 65 62 64 66 56 56 51 50 49 47 48 50 49 48 47 52 46 47 42 44 37 39 37 37 39 37 35 37
43 42 41 45 51 53 54 55 52 49 51 53 55 56 53 58 61 64 62 60 60 61 58 59 57 53 54 53 53 51 51 49 46 43 44 40 36 31 32 37 41 40 40 42
40 38 40 43 45 47 49 50 51 49 50 55 55 57 56 54 56 59 61 62 61 61 59 56 59 62 59 58 56 55 55 54 51 47 42 41 41 40 40 38 37 38 37 38
34 34 37 40 42 43 45 45 45 46 50 52 54 55 55 53 54 53 54 57 60 59 59 61 62 61 58 59 59 57 58 57 55 52 49 47 46 44 41 40 40 41 44 43
29 30 33 37 37 39 39 40 42 44 49 52 54 56 54 54 53 52 53 53 54 56 57 57 55 55 55 55 55 55 55 56 54 51 50 47 47 48 48 43 49 48 49 51
29 30 33 31 35 38 35 39 42 44 47 51 52 56 56 54 51 52 51 51 53 54 55 56 55 53 53 52 51 51 51 50 50 50 50 50 48 47 50 52 52 53 50 51
34 34 30 33 35 35 37 40 42 45 48 50 51 55 54 54 54 54 53 53 52 54 58 56 54 50 49 46 44 44 42 44 45 45 47 49 49 45 45 47 48 50 44 48
34 34 35 37 36 32 36 40 45 48 50 52 49 55 55 55 55 50 51 48 53 55 57 57 50 44 40 39 33 35 35 39 41 43 45 47 49 51 47 41 41 44 46 44
32 30 28 25 21 23 27 32 35 41 44 49 50 52 54 54 51 50 50 46 44 44 45 39 41 43 35 35 37 35 39 41 42 44 46 49 50 48 45 42 43 45 47 49
25 24 22 23 24 23 23 24 31 40 36 33 35 36 37 36 36 37 33 34 37 42 38 40 40 35 35 39 40 36 33 31 35 38 43 45 47 46 45 45 47 49 51 52
25 26 27 27 24 22 22 23 22 21 21 17 15 21 20 23 27 29 33 34 36 37 39 42 43 37 35 31 26 26 25 28 29 33 38 41 41 42 42 43 45 46 48 50
27 31 28 25 23 19 13 13 18 20 21 14 16 17 16 21 30 29 28 31 33 34 35 33 29 25 25 22 23 23 22 22 28 31 34 37 37 38 40 42 43 45 46 47
29 31 30 28 26 24 21 20 20 18 17 15 13 11 16 18 26 34 32 29 31 34 32 31 26 24 22 22 23 25 22 23 25 28 30 33 36 39 42 44 44 45 48 52
29 31 31 28 23 22 23 21 19 18 19 18 16 11 10 12 15 20 28 36 34 43 36 34 28 28 27 27 26 23 27 28 29 31 33 35 35 38 40 42 44 47 50 57
36 34 32 31 25 24 23 22 22 21 17 17 16 14 11 13 16 20 27 24 30 32 37 35 34 33 29 28 26 27 32 35 34 30 32 34 36 39 42 43 46 51 58 61
37 35 35 30 26 25 25 25 24 22 18 18 18 20 15 14 12 15 5 22 25 21 29 32 34 34 23 24 25 29 31 31 32 33 33 35 38 41 43 47 49 56 57 55
34 37 35 31 24 25 20 26 24 22 23 18 16 15 16 14 16 15 5 8 23 11 11 33 29 32 22 22 25 30 31 33 33 34 35 36 40 45 46 51 53 57 54 53
29 31 32 31 23 27 20 20 19 17 19 19 17 13 14 13 13 11 10 8 11 10 12 19 23 32 23 29 27 29 31 32 33 34 35 40 43 46 49 51 56 53 51 50
31 30 30 30 26 25 20 21 18 14 16 15 13 17 14 13 8 11 13 11 12 18 17 26 24 27 30 28 27 29 33 33 34 36 39 43 46 48 52 56 54 51 50 48
37 34 32 29 29 25 18 17 17 18 14 9 10 9 7 7 8 9 13 15 16 17 16 26 30 26 28 30 29 31 32 33 35 39 41 44 49 50 54 56 53 50 47 47
32 35 35 31 29 26 20 19 20 19 16 15 13 12 10 10 15 19 16 16 16 15 15 16 18 20 23 25 26 29 30 32 36 39 43 47 48 51 55 52 49 44 40 35
30 31 28 21 23 23 19 18 16 17 18 20 18 16 13 14 14 14 15 17 17 17 17 19 20 22 24 26 29 31 34 36 38 40 45 48 49 53 50 47 38 33 32 31
36 34 32 24 18 15 21 25 27 25 23 25 26 21 16 16 17 18 19 19 19 20 22 23 24 26 28 30 32 33 34 36 38 43 47 47 51 48 47 34 32 30 29 32
26 26 22 15 11 11 16 20 24 25 22 23 23 22 19 16 16 16 19 22 23 24 25 26 27 28 30 31 32 33 35 37 41 44 45 47 48 46 34 29 27 28 30 27
25 23 22 23 19 15 15 20 18 18 22 20 19 18 16 16 18 21 22 24 25 27 28 29 30 30 32 33 34 36 37 40 43 43 43 46 44 35 27 26 25 28 26 22
32 25 23 26 24 27 24 22 19 19 19 18 17 16 18 21 23 25 26 28 29 30 31 32 33 34 35 36 37 39 40 41 40 41 43 43 37 25 25 23 25 25 23 23
Wind_Direction
196 202 202 202 203 206 212 212 211 209 213 216 219 216 218 222 224 229 237 243 248 250 252 255 257 259 260 263 268 269 271 268 275 281 283 285 279 272 267 267 270 273 278 282
192 196 199 205 206 206 210 211 209 212 215 215 220 221 215 226 226 228 231 239 244 248 252 256 259 261 264 265 268 270 270 271 274 282 284 280 273 272 275 275 273 277 279 280
187 187 192 199 207 209 212 214 210 209 213 218 219 223 222 222 230 231 233 235 242 247 251 252 255 258 261 265 267 270 271 273 276 279 275 271 273 273 273 270 272 276 278 279
184 185 190 195 201 205 211 214 214 212 214 217 222 226 227 225 228 233 236 237 239 244 247 251 255 258 261 264 267 269 272 274 274 274 272 269 271 273 270 266 278 281 286 285
175 178 184 188 195 201 205 210 212 210 214 216 222 227 227 228 227 231 235 240 243 245 246 249 250 254 258 261 264 268 271 274 275 273 271 269 266 269 266 265 270 272 276 281
180 180 184 186 194 197 201 206 208 209 214 218 223 227 227 230 230 232 232 232 240 248 252 254 255 257 259 262 264 265 267 270 269 270 271 272 272 269 266 267 271 273 274 274
179 185 188 186 188 197 204 211 212 212 216 220 220 226 229 230 232 234 237 237 234 238 245 250 254 257 260 265 265 265 263 261 260 262 264 266 270 266 267 267 266 267 266 272
182 183 184 186 191 200 204 212 215 216 216 220 221 227 229 232 235 236 240 246 246 241 242 249 254 255 255 258 260 256 260 263 263 268 269 271 272 275 273 265 261 266 268 270
185 186 191 195 204 206 214 217 214 214 218 220 225 228 232 233 234 235 237 239 247 252 254 252 251 258 256 260 254 257 261 261 265 266 267 268 269 268 274 280 283 283 282 280
183 191 188 193 197 207 211 215 212 217 215 217 228 232 241 240 236 234 235 237 238 244 243 248 250 247 250 250 250 251 251 257 265 269 272 274 276 281 283 284 285 283 283 286
176 185 188 191 194 197 196 201 201 210 217 214 214 231 226 223 210 217 215 222 226 231 228 235 238 237 246 240 244 243 253 263 274 280 285 286 288 287 286 285 283 283 285 286
174 176 181 176 176 183 187 202 202 214 208 223 217 207 217 204 199 195 201 218 224 228 226 228 226 224 232 237 245 252 260 271 276 280 284 287 291 292 289 289 291 293 296 297
181 182 181 181 185 189 198 197 205 214 212 243 238 223 244 243 218 218 215 220 231 232 231 228 226 223 227 242 251 252 257 270 275 276 282 285 284 284 285 289 292 295 295 293
185 189 186 190 196 207 211 207 206 208 223 240 246 272 242 241 245 257 250 245 235 225 230 238 236 227 235 243 247 248 254 260 268 278 279 277 277 278 282 285 287 291 296 298
188 192 192 197 201 207 212 206 210 215 224 243 252 250 263 278 280 270 261 228 217 214 225 230 241 244 247 257 252 251 260 264 270 275 274 275 277 281 282 286 294 298 301 300
188 193 198 197 202 211 212 215 223 230 232 253 250 242 251 278 312 317 153 203 216 233 233 245 247 245 234 242 250 259 261 264 275 281 279 278 280 285 291 296 296 302 304 304
190 192 198 202 213 210 223 230 228 234 236 259 259 243 255 275 297 307 140 176 219 255 250 244 237 239 246 240 245 254 265 274 280 277 275 281 289 292 295 300 304 308 306 306
201 192 196 201 210 216 226 224 229 245 248 254 268 263 261 274 280 273 277 244 211 242 247 272 251 251 236 244 251 263 272 279 276 277 285 292 295 299 301 306 310 306 304 304
208 206 204 204 209 221 229 237 244 275 254 262 268 295 269 263 254 266 254 249 242 244 231 231 237 232 238 254 268 274 277 279 281 288 290 296 299 304 306 310 309 304 303 302
211 216 221 223 224 225 228 245 257 268 294 272 280 295 275 234 231 210 206 226 238 248 256 250 257 251 265 265 267 275 282 286 288 292 298 303 306 307 309 310 307 304 302 302
212 222 228 237 241 241 237 243 254 258 265 273 277 285 269 230 223 227 240 240 246 254 257 260 258 256 264 273 282 286 288 291 295 302 304 305 307 310 310 307 306 304 304 303
216 219 219 234 239 239 235 233 238 254 261 261 265 277 260 246 245 247 252 261 269 274 279 285 292 294 295 294 294 294 294 296 298 300 305 309 310 311 308 308 307 305 305 306
221 229 238 243 246 250 246 251 259 259 260 251 245 246 250 250 260 272 282 287 293 296 295 295 297 296 295 293 290 291 294 295 298 302 307 309 311 309 309 304 303 305 309 312
228 238 225 232 233 233 238 242 250 260 249 227 219 228 242 255 263 270 279 283 285 289 294 296 295 293 292 292 292 293 294 295 300 305 307 310 310 308 302 299 302 310 312 310
228 220 219 225 242 240 239 241 248 236 223 224 227 237 251 260 270 280 284 286 289 291 292 291 291 293 294 294 293 293 295 298 303 305 307 310 308 302 294 299 307 309 307 311
229 235 233 232 240 239 233 219 227 228 222 232 242 253 265 270 272 277 283 286 288 290 290 291 291 291 293 295 295 296 298 300 302 305 309 309 305 290 294 297 305 306 310 317
Height
5666 5676 5688 5699 5707 5716 5726 5737 5748 5756 5762 5768 5779 5785 5791 5796 5802 5808 5812 5817 5824 5831 5836 5841 5848 5853 5858 5862 5865 5868 5871 5872 5877 5876 5876 5875 5875 5873 5871 5869 5867 5865 5864 5864
5662 5673 5686 5696 5703 5711 5718 5727 5740 5750 5755 5762 5768 5776 5786 5787 5796 5803 5808 5810 5817 5822 5830 5834 5838 5844 5848 5853 5856 5859 5861 5862 5865 5867 5867 5868 5866 5865 5863 5861 5860 5857 5855 5854
5661 5672 5680 5689 5699 5708 5715 5723 5733 5743 5748 5753 5760 5765 5776 5786 5789 5795 5803 5808 5809 5812 5819 5827 5831 5834 5838 5841 5844 5847 5849 5851 5855 5858 5858 5858 5858 5857 5856 5854 5852 5849 5847 5846
5659 5667 5675 5685 5693 5703 5711 5719 5727 5736 5741 5748 5752 5761 5769 5779 5786 5790 5797 5801 5804 5806 5811 5816 5819 5825 5829 5832 5833 5835 5837 5840 5843 5846 5847 5847 5847 5846 5844 5843 5841 5838 5835 5833
5661 5666 5674 5682 5692 5698 5706 5712 5720 5727 5733 5739 5745 5752 5762 5768 5779 5786 5790 5793 5795 5797 5800 5805 5812 5817 5820 5822 5825 5827 5828 5829 5830 5833 5834 5835 5837 5835 5833 5831 5830 5829 5826 5824
5656 5662 5670 5681 5686 5691 5697 5705 5712 5719 5725 5734 5742 5745 5752 5762 5772 5774 5781 5787 5790 5789 5792 5796 5801 5809 5812 5814 5817 5817 5818 5818 5818 5817 5818 5820 5822 5823 5821 5819 5817 5815 5812 5810
5652 5659 5668 5675 5681 5688 5694 5700 5707 5714 5721 5730 5730 5735 5748 5754 5758 5766 5771 5776 5781 5783 5784 5789 5793 5798 5801 5804 5807 5807 5808 5806 5806 5806 5806 5806 5805 5808 5808 5807 5805 5803 5801 5800
5652 5660 5665 5672 5679 5686 5690 5694 5700 5706 5713 5716 5722 5729 5739 5745 5750 5759 5763 5765 5770 5777 5781 5784 5788 5789 5791 5793 5796 5797 5796 5796 5796 5795 5794 5793 5793 5793 5794 5795 5794 5793 5791 5789
5655 5662 5668 5675 5680 5685 5689 5693 5699 5702 5707 5711 5718 5725 5729 5736 5743 5748 5752 5758 5764 5769 5773 5778 5780 5781 5783 5785 5787 5787 5786 5786 5787 5786 5785 5785 5785 5784 5783 5782 5782 5781 5779 5776
5657 5663 5669 5673 5677 5682 5686 5692 5694 5696 5703 5710 5715 5720 5724 5730 5736 5740 5746 5751 5755 5761 5767 5770 5773 5774 5775 5778 5777 5779 5778 5779 5779 5779 5777 5777 5776 5776 5776 5774 5772 5768 5766 5764
5656 5662 5666 5670 5675 5680 5684 5687 5693 5700 5706 5711 5716 5720 5723 5727 5731 5736 5742 5746 5749 5754 5759 5762 5764 5767 5768 5769 5770 5771 5772 5773 5773 5771 5767 5767 5768 5768 5766 5763 5761 5759 5757 5755
5657 5661 5666 5673 5677 5681 5686 5690 5694 5698 5705 5710 5713 5718 5720 5724 5729 5732 5736 5741 5744 5748 5753 5755 5757 5758 5760 5762 5763 5764 5766 5766 5765 5763 5763 5761 5759 5758 5756 5753 5750 5747 5744 5741
5656 5661 5665 5671 5677 5680 5684 5689 5694 5700 5704 5708 5711 5717 5718 5721 5724 5727 5731 5735 5739 5743 5746 5748 5751 5752 5754 5757 5758 5759 5760 5760 5759 5759 5757 5755 5753 5750 5748 5745 5743 5739 5735 5730
5657 5661 5666 5671 5677 5680 5684 5689 5694 5698 5702 5706 5710 5713 5715 5718 5721 5723 5725 5727 5731 5734 5739 5743 5747 5749 5751 5753 5754 5755 5755 5754 5754 5752 5749 5748 5746 5745 5743 5740 5735 5730 5725 5719
5655 5661 5666 5670 5675 5679 5684 5688 5692 5696 5700 5703 5708 5710 5712 5714 5715 5714 5714 5716 5722 5728 5734 5737 5740 5743 5745 5746 5748 5748 5748 5747 5745 5742 5741 5740 5740 5738 5734 5729 5724 5719 5713 5706
5652 5659 5665 5670 5674 5678 5683 5687 5691 5695 5698 5701 5705 5708 5710 5711 5710 5710 5707 5713 5720 5726 5730 5732 5734 5737 5739 5740 5740 5741 5740 5738 5737 5736 5735 5733 5731 5728 5723 5719 5713 5706 5699 5691
5652 5658 5664 5669 5673 5677 5681 5684 5689 5693 5696 5699 5702 5705 5706 5707 5708 5709 5710 5713 5717 5722 5724 5728 5729 5731 5732 5731 5731 5732 5733 5732 5730 5729 5727 5724 5721 5717 5711 5705 5699 5691 5683 5676
5653 5658 5662 5667 5671 5675 5679 5682 5686 5690 5693 5696 5699 5702 5703 5705 5706 5708 5710 5712 5714 5718 5720 5720 5721 5725 5724 5724 5724 5725 5725 5723 5722 5721 5718 5714 5709 5704 5699 5692 5685 5678 5671 5665
5651 5656 5660 5663 5669 5673 5676 5680 5684 5686 5690 5693 5696 5699 5700 5701 5704 5704 5703 5705 5708 5711 5714 5714 5714 5715 5716 5717 5717 5715 5716 5714 5712 5708 5705 5702 5697 5692 5687 5680 5673 5666 5660 5654
5648 5653 5657 5661 5664 5668 5675 5678 5681 5683 5686 5689 5693 5693 5695 5697 5699 5700 5702 5703 5704 5705 5706 5707 5708 5708 5710 5709 5709 5708 5705 5702 5700 5698 5695 5690 5686 5681 5675 5668 5661 5655 5649 5643
5646 5649 5653 5657 5662 5666 5672 5676 5677 5681 5687 5685 5686 5687 5689 5691 5694 5696 5697 5699 5701 5702 5702 5702 5702 5703 5703 5701 5698 5696 5695 5694 5691 5688 5684 5681 5676 5670 5663 5656 5650 5644 5639 5634
5644 5647 5651 5654 5658 5663 5668 5672 5676 5679 5679 5678 5679 5680 5681 5683 5687 5690 5692 5693 5694 5694 5694 5693 5692 5691 5690 5690 5690 5689 5687 5685 5682 5678 5675 5670 5665 5658 5652 5645 5640 5635 5632 5627
5639 5644 5648 5653 5657 5660 5664 5667 5668 5670 5672 5673 5675 5678 5679 5680 5682 5684 5685 5685 5684 5685 5685 5685 5685 5684 5684 5683 5683 5681 5678 5675 5673 5669 5665 5660 5654 5647 5641 5637 5633 5629 5625 5621
5636 5640 5644 5649 5653 5655 5657 5659 5660 5662 5665 5666 5669 5672 5675 5677 5678 5679 5680 5680 5680 5680 5679 5678 5677 5677 5677 5675 5674 5672 5669 5667 5664 5660 5655 5650 5644 5638 5633 5630 5627 5623 5619 5616
5633 5637 5640 5645 5649 5652 5654 5655 5656 5657 5660 5664 5666 5668 5671 5673 5674 5674 5674 5674 5673 5673 5672 5672 5671 5670 5669 5667 5664 5662 5659 5657 5653 5649 5645 5640 5634 5629 5626 5624 5621 5618 5614 5612
5626 5632 5637 5639 5643 5647 5649 5652 5654 5656 5657 5660 5662 5665 5667 5668 5669 5669 5669 5669 5668 5667 5666 5665 5663 5661 5660 5658 5655 5652 5650 5647 5644 5640 5636 5630 5626 5622 5621 5618 5615 5613 5608 5604